Location: Eaton Estates
(41.3089°N, 82.0057°W)
Time: 11:14:32
(UTC+00:00)

Meteor 2-19 Rocket - Pass Details

Date: 17 June 2021
Orbit: 935 x 959 km, 82.5° (Epoch: 30 July)

Event Time Altitude Azimuth Distance (km) Brightness Sun altitude
Exits shadow 07:21:39 31° 176° (S) 1,619 5.2 -20.2°
Maximum altitude 07:24:47 77° 96° (E) 983 4.5 -20.0°
Drops below altitude 10° 07:30:56 10° 11° (N) 2,687 7.9 -19.4°
Sets 07:33:26 0° 10° (N) 3,633 8.8 -19.2°
